Follow iAlert.com on twitter @ialertcom
Search For Active Alerts in Your Area  
  Hi Guest:  [ Sign-up / Services ] [ Login ]

Current weather by "City, St" or "zip code"  
 

Advertise Here

Current Conditions: Hammond, Hammond Municipal Airport, LA

Fair


63.0 F

Last Updated on Oct 19 2018, 1:55 am CDT
Humidity: 73%
Wind Speed: NE 3.5 mph
Barometer 30.22 in
Dewpoint: 53.6 F
Visibility: 10.00 mi
Precip: --
Heat Index: NA
Wind Chill: NA
Current conditions at:

Hammond, Hammond Municipal Airport, LA (KHDC)

Lat: 30.52 Lon: 90.417

Local Radar Image active severe weather and emergency alerts image image weather storm and storm spotter reports image weather observation monitoring service image
Local
Radar
Active
Alerts
Storm Reports Obs
Monitoring

iAlert Weather and Emergency Alert Notification Services:


ialert severe weather and emergency alerts by text message and email ialert daily weather forecast by email and text message service ialert real-time weather-observation monitoring and alert notification service ialert storm report monitoring alert notification

Observation History for Hammond, Hammond Municipal Airport, LA


Time Wind
(mph)
Vis
(mi)
Weather Precip (in) Temperature (F) Relative
Humidity
Wind
Chill
(°F)
Heat
Index
(°F)
Pressure
Air Dwpt altimeter
(in)
sea level
(mb)
1:55 am CDT NE 3.5 10.00 Fair -- 63.0 53.6 73% NA NA 30.22 M
12:55 am CDT NE 3.5 10.00 Fair -- 63.0 53.6 73% NA NA 30.23 M
11:55 pm CDT NE 3.5 10.00 Fair -- 64.0 53.6 68% NA NA 30.25 M
10:55 pm CDT NE 3.5 10.00 Fair -- 64.0 55.4 73% NA NA 30.26 M
9:55 pm CDT NE 5.8 10.00 Fair -- 68.0 55.4 64% NA NA 30.26 M
8:55 pm CDT NE 5.8 10.00 Fair -- 68.0 59.0 73% NA NA 30.25 M
8:35 pm CDT NE 6.9 10.00 Fair -- 70.0 59.0 69% NA NA 30.25 M
7:55 pm CDT NE 3.5 10.00 Fair -- 68.0 60.8 78% NA NA 30.25 M
6:55 pm CDT N 0.0 10.00 Fair -- 72.0 59.0 65% NA NA 30.23 M
5:55 pm CDT NE 4.6 10.00 Fair -- 75.0 59.0 57% NA NA 30.21 M
4:55 pm CDT NE 5.8 10.00 Fair -- 79.0 59.0 51% NA NA 30.21 M
3:55 pm CDT NE 8.1 10.00 Fair -- 79.0 59.0 51% NA NA 30.21 M
2:55 pm CDT E 3.5 10.00 Fair -- 79.0 59.0 51% NA NA 30.22 M
2:35 pm CDT NE 6.9 10.00 Fair -- 79.0 59.0 51% NA NA 30.22 M
1:55 pm CDT NE 8.1 10.00 Fair -- 77.0 57.2 51% NA NA 30.24 M
12:55 pm CDT NE 4.6 10.00 Fair -- 77.0 53.6 44% NA NA 30.27 M
11:55 am CDT E 5.8 10.00 Fair -- 75.0 55.4 50% NA NA 30.29 M
10:55 am CDT E 9.2 10.00 Fair -- 70.0 51.8 53% NA NA 30.30 M
9:55 am CDT E 6.9 G 16.1 10.00 Fair -- 68.0 51.8 56% NA NA 30.30 M
8:55 am CDT NE 6.9 10.00 Fair -- 64.0 51.8 64% NA NA 30.29 M
7:35 am CDT NE 3.5 10.00 Fair -- 59.0 51.8 77% NA NA 30.27 M
7:55 am CDT NE 3.5 10.00 Fair -- 61.0 51.8 72% NA NA 30.27 M
6:55 am CDT NE 3.5 10.00 Fair -- 59.0 51.8 77% NA NA 30.26 M
6:35 am CDT NE 3.5 10.00 Fair -- 59.0 51.8 77% NA NA 30.26 M

Regional Weather Observation


New Orleans, New Orleans International Airport, LA (KMSY)

A Few Clouds
72.0 F

New Orleans, New Orleans Lakefront Airport, LA (KNEW)

Fair
70.0 F

McComb, McComb / Pike County / John E Lewis Field Airport, MS (KMCB)

Fair
62.0 F

Baton Rouge, Baton Rouge Metropolitan, Ryan Field, LA (KBTR)

Fair
63.0 F

New Roads False River Regional Airport, LA (KHZR)

Fair
63.0 F

Bogalusa, George R Carr Memorial Air Field, LA (KBXA)

Fair
61.0 F

Advertise Here